Weather History for KPOV - November, 2013

Change the Weather History Date:

Tuesday, November 5, 2013

  Actual Average (KCAK) Record (KCAK)
Temperature  
Mean Temperature 48 °F 46 °F  
Max Temperature 59 °F 54 °F 75 °F (1948)
Min Temperature 38 °F 37 °F 14 °F (1991)
Degree Days  
Heating Degree Days 16 20  
Month to date heating degree days 95  
Since 1 July heating degree days 650  
Cooling Degree Days 0 0  
Month to date cooling degree days 0  
Year to date cooling degree days 652  
Moisture  
Dew Point 33 °F    
Average Humidity 57    
Maximum Humidity 70    
Minimum Humidity 43    
Precipitation  
Precipitation 0.00 in 0.11 in - ()
Month to date precipitation 0.55  
Year to date precipitation 34.03  
Snow  
Snow 0.00 in 0.10 in - ()
Month to date snowfall 0.3  
Since 1 July snowfall 0.7  
Since 1 September snowfall 0.7  
Snow Depth -    
Sea Level Pressure  
Sea Level Pressure 30.38 in    
Wind  
Wind Speed 3 mph (SE)    
Max Wind Speed 7 mph    
Max Gust Speed -    
Visibility 10 miles    
Events      
T = Trace of Precipitation, MM = Missing Value Source: NWS Daily Summary

Daily Weather History Graph

Daily Weather History Graph

Search for Another Location

Airport or City:

Trip Planner

Search our weather history database for the weather conditions in past years. The results will help you decide how hot, cold, wet, or windy it might be!

Date:

Astronomy

Nov. 05, 2013 Rise Set
Actual Time 7:01 AM EST 5:15 PM EST
Civil Twilight 6:32 AM EST 5:44 PM EST
Nautical Twilight 5:59 AM EST 6:17 PM EST
Astronomical Twilight 5:27 AM EST 6:49 PM EST
Moon 9:15 AM EST (11/5) 7:14 PM EST (11/5)
Length of Visible Light 11h 12m
Length of Day
10h 14m
Waxing Crescent, 6% of the Moon is Illuminated
Nov 5
Waxing Crescent
Nov 10
First Quarter
Nov 17
Full
Nov 25
Last Quarter
Dec 2
New

Hourly Weather History & Observations

Time (EST) Temp. Windchill Dew Point Humidity Pressure Visibility Wind Dir Wind Speed Gust Speed Precip Events Conditions
12:17 AM 40.1 °F 36.9 °F 25.3 °F 56% 30.39 in 10.0 mi ESE 4.6 mph - N/A   Clear
12:36 AM 40.3 °F 38.2 °F 25.2 °F 55% 30.39 in 10.0 mi SE 3.5 mph - N/A   Clear
12:57 AM 40.3 °F - 25.0 °F 54% 30.40 in 10.0 mi Calm Calm - N/A   Clear
1:17 AM 39.9 °F 37.8 °F 25.9 °F 57% 30.39 in 10.0 mi SE 3.5 mph - N/A   Clear
1:36 AM 39.2 °F 37.0 °F 26.8 °F 61% 30.39 in 10.0 mi SE 3.5 mph - N/A   Clear
1:56 AM 38.5 °F 36.1 °F 27.0 °F 63% 30.39 in 10.0 mi ESE 3.5 mph - N/A   Clear
2:17 AM 38.3 °F 35.9 °F 27.0 °F 64% 30.40 in 10.0 mi ESE 3.5 mph - N/A   Clear
2:36 AM 38.3 °F 35.9 °F 27.0 °F 64% 30.40 in 10.0 mi ESE 3.5 mph - N/A   Clear
2:57 AM 38.3 °F - 27.5 °F 65% 30.40 in 10.0 mi Calm Calm - N/A   Clear
3:17 AM 38.7 °F 36.3 °F 27.7 °F 65% 30.40 in 10.0 mi ESE 3.5 mph - N/A   Clear
3:36 AM 39.2 °F 37.0 °F 28.0 °F 64% 30.40 in 10.0 mi SE 3.5 mph - N/A   Clear
3:57 AM 39.7 °F - 28.2 °F 63% 30.40 in 10.0 mi Calm Calm - N/A   Clear
4:17 AM 40.3 °F - 28.9 °F 64% 30.41 in 10.0 mi Calm Calm - N/A   Scattered Clouds
4:36 AM 41.0 °F 39.0 °F 29.1 °F 63% 30.40 in 10.0 mi ESE 3.5 mph - N/A   Scattered Clouds
4:57 AM 40.8 °F - 29.3 °F 64% 30.41 in 10.0 mi Calm Calm - N/A   Clear
5:17 AM 41.0 °F - 29.8 °F 64% 30.41 in 10.0 mi Calm Calm - N/A   Scattered Clouds
5:36 AM 39.9 °F - 30.7 °F 70% 30.41 in 10.0 mi Calm Calm - N/A   Mostly Cloudy
5:57 AM 41.0 °F - 29.8 °F 64% 30.41 in 10.0 mi Calm Calm - N/A   Scattered Clouds
6:17 AM 40.1 °F - 30.4 °F 68% 30.41 in 10.0 mi Calm Calm - N/A   Clear
6:36 AM 40.6 °F 38.6 °F 30.7 °F 68% 30.41 in 10.0 mi ESE 3.5 mph - N/A   Scattered Clouds
6:56 AM 41.0 °F 39.0 °F 30.9 °F 67% 30.41 in 10.0 mi ESE 3.5 mph - N/A   Overcast
7:17 AM 41.9 °F - 30.7 °F 65% 30.42 in 10.0 mi Calm Calm - N/A   Overcast
7:37 AM 41.9 °F - 31.6 °F 67% 30.42 in 10.0 mi Calm Calm - N/A   Overcast
7:56 AM 42.4 °F 39.6 °F 31.8 °F 66% 30.43 in 10.0 mi ESE 4.6 mph - N/A   Overcast
8:17 AM 43.3 °F 41.7 °F 32.2 °F 65% 30.43 in 10.0 mi SE 3.5 mph - N/A   Overcast
8:36 AM 44.2 °F 41.8 °F 32.2 °F 63% 30.43 in 10.0 mi SE 4.6 mph - N/A   Scattered Clouds
8:56 AM 45.1 °F 43.7 °F 32.7 °F 62% 30.43 in 10.0 mi ESE 3.5 mph - N/A   Clear
9:17 AM 46.2 °F 45.0 °F 32.5 °F 59% 30.42 in 10.0 mi SE 3.5 mph - N/A   Clear
9:37 AM 46.8 °F - 32.9 °F 59% 30.42 in 10.0 mi ESE 3.5 mph - N/A   Clear
9:56 AM 48.2 °F - 33.4 °F 57% 30.43 in 10.0 mi South 3.5 mph - N/A   Clear
10:17 AM 49.5 °F - 32.7 °F 53% 30.42 in 10.0 mi SSE 4.6 mph - N/A   Clear
10:36 AM 50.5 °F - 33.3 °F 52% 30.42 in 10.0 mi Calm Calm - N/A   Scattered Clouds
10:57 AM 51.4 °F - 34.0 °F 51% 30.43 in 10.0 mi SSW 4.6 mph - N/A   Scattered Clouds
11:17 AM 52.2 °F - 34.0 °F 50% 30.43 in 10.0 mi South 4.6 mph - N/A   Mostly Cloudy
11:36 AM 52.9 °F - 34.3 °F 49% 30.42 in 10.0 mi Calm Calm - N/A   Mostly Cloudy
11:56 AM 53.4 °F - 34.9 °F 49% 30.42 in 10.0 mi SSW 3.5 mph - N/A   Scattered Clouds
12:17 PM 54.1 °F - 35.2 °F 49% 30.41 in 10.0 mi SSE 4.6 mph - N/A   Clear
12:36 PM 55.2 °F - 35.6 °F 48% 30.40 in 10.0 mi SSE 4.6 mph - N/A   Clear
12:56 PM 56.8 °F - 36.3 °F 46% 30.39 in 10.0 mi South 4.6 mph - N/A   Clear
1:17 PM 57.6 °F - 36.9 °F 46% 30.37 in 10.0 mi SSE 5.8 mph - N/A   Clear
1:37 PM 57.2 °F - 37.2 °F 47% 30.37 in 10.0 mi SSE 6.9 mph - N/A   Mostly Cloudy
1:56 PM 58.1 °F - 37.6 °F 46% 30.36 in 10.0 mi SSE 3.5 mph - N/A   Mostly Cloudy
2:17 PM 59.0 °F - 36.9 °F 44% 30.36 in 10.0 mi South 3.5 mph - N/A   Clear
2:36 PM 59.9 °F - 37.4 °F 43% 30.36 in 10.0 mi South 5.8 mph - N/A   Unknown
2:57 PM 59.2 °F - 36.7 °F 43% 30.36 in 10.0 mi SSE 5.8 mph - N/A   Unknown
3:17 PM 59.0 °F - 37.0 °F 44% 30.37 in 10.0 mi South 4.6 mph - N/A   Unknown
3:36 PM 58.3 °F - 36.7 °F 45% 30.36 in 10.0 mi South 6.9 mph - N/A   Unknown
3:56 PM 57.6 °F - 36.7 °F 46% 30.35 in 10.0 mi South 4.6 mph - N/A   Scattered Clouds
4:17 PM 57.2 °F - 36.9 °F 47% 30.35 in 10.0 mi Calm Calm - N/A   Clear
4:36 PM 56.7 °F - 37.4 °F 49% 30.36 in 10.0 mi Calm Calm - N/A   Clear
4:56 PM 56.1 °F - 37.4 °F 49% 30.35 in 10.0 mi SSE 3.5 mph - N/A   Unknown
5:17 PM 55.4 °F - 37.2 °F 50% 30.34 in 10.0 mi SE 3.5 mph - N/A   Unknown
5:36 PM 54.9 °F - 36.9 °F 51% 30.36 in 10.0 mi Calm Calm - N/A   Unknown
5:57 PM 53.1 °F - 37.4 °F 55% 30.36 in 10.0 mi Calm Calm - N/A   Unknown
6:17 PM 52.5 °F - 37.0 °F 56% 30.36 in 10.0 mi Calm Calm - N/A   Clear
6:36 PM 48.0 °F - 38.7 °F 70% 30.35 in 10.0 mi East 4.6 mph - N/A   Unknown
6:56 PM 50.2 °F - 37.8 °F 62% 30.34 in 10.0 mi ESE 3.5 mph - N/A   Unknown
7:17 PM 50.7 °F - 36.9 °F 59% 30.33 in 10.0 mi ESE 5.8 mph - N/A   Clear
7:37 PM 51.3 °F - 36.0 °F 56% 30.32 in 10.0 mi ESE 4.6 mph - N/A   Unknown
7:56 PM 51.8 °F - 34.9 °F 53% 30.33 in 10.0 mi SE 3.5 mph - N/A   Unknown
8:17 PM 50.5 °F - 34.3 °F 54% 30.33 in 10.0 mi SE 3.5 mph - N/A   Clear
8:36 PM 48.9 °F - 34.2 °F 57% 30.32 in 10.0 mi Calm Calm - N/A   Clear
8:57 PM 48.6 °F - 33.8 °F 57% 30.32 in 10.0 mi ESE 3.5 mph - N/A   Unknown
9:17 PM 46.2 °F 45.0 °F 34.2 °F 63% 30.32 in 10.0 mi ESE 3.5 mph - N/A   Unknown
9:36 PM 44.4 °F 42.9 °F 33.8 °F 66% 30.32 in 10.0 mi SE 3.5 mph - N/A   Clear
9:57 PM 46.9 °F - 34.0 °F 61% 30.31 in 10.0 mi SE 5.8 mph - N/A   Clear
10:17 PM 48.6 °F - 33.3 °F 56% 30.32 in 10.0 mi ESE 3.5 mph - N/A   Clear
10:37 PM 47.5 °F - 34.0 °F 59% 30.31 in 10.0 mi SE 4.6 mph - N/A   Clear
10:56 PM 48.2 °F - 33.1 °F 56% 30.31 in 10.0 mi SE 4.6 mph - N/A   Clear
11:17 PM 46.9 °F - 32.7 °F 58% 30.30 in 10.0 mi SE 4.6 mph - N/A   Clear
11:36 PM 46.9 °F - 32.2 °F 57% 30.30 in 10.0 mi SE 3.5 mph - N/A   Clear
11:57 PM 45.1 °F 42.8 °F 32.2 °F 60% 30.29 in 10.0 mi ESE 4.6 mph - N/A   Clear